{"data":{"norad_id":53690,"intl_designator":"2022-105AU","name":"STARLINK-4570","alt_names":[],"object_type":"PAYLOAD","status":"ACTIVE","operator":null,"country":"US","launch_date":"2022-08-31","launch_site_code":"AFWTR","launch_vehicle":null,"mission":null,"orbit_class":"UNKNOWN","rcs_meters":null,"size_class":null,"mass_kg":null,"dimensions":null,"purposes":["comms"],"wikipedia_slug":null,"has_3d_model":false,"image_url":null,"decayed_at":null,"tle_current":{"epoch":"2026-09-20T14:42:08.030880Z","epoch_age_seconds":71970,"freshness":"FRESH","line1":"1 53690U 22105AU  26263.61259295  .00000429  00000+0  33619-4 0  9991","line2":"2 53690  97.2850 137.3926 0001909  80.4860 279.6584 15.05658938222560","mean_motion":15.05658938,"eccentricity":0.0001909,"inclination_deg":97.285,"raan_deg":137.3926,"arg_perigee_deg":80.486,"mean_anomaly_deg":279.6584,"bstar":3.3619e-5,"rev_number":22256,"period_min":95.63918917207,"perigee_km":548.16125494703,"apogee_km":550.8062205447,"semimajor_km":6927.6207377459,"source":"CELESTRAK","updated_at":"2026-09-21T09:00:32.980347Z"}}}